Weather History for De Queen, AR

Change the Weather History Date:

Sunday, August 5, 2012

  Actual Average Record
Temperature  
Mean Temperature 88 °F 82 °F  
Max Temperature 104 °F 94 °F 109 °F (1956)
Min Temperature 72 °F 69 °F 54 °F (1976)
Degree Days  
Heating Degree Days 0 0  
Month to date heating degree days 0 0  
Since 1 June heating degree days 0 0  
Since 1 July heating degree days 0 0  
Cooling Degree Days 23 17  
Month to date cooling degree days 106 81  
Year to date cooling degree days 1494 1173  
Since 1 June cooling degree days 1121 956  
Growing Degree Days 38 (Base 50)    
Moisture  
Dew Point 71 °F    
Average Humidity 63    
Maximum Humidity 94    
Minimum Humidity 31    
Precipitation  
Precipitation 0.06 in 0.07 in 1.13 in (1994)
Month to date precipitation 0.06 0.34  
Year to date precipitation 18.53 29.76  
Snow  
Snow 0.00 in - - ()
Month to date snowfall 0.0  
Since 1 June snowfall 0.0  
Since 1 July snowfall 0.0  
Snow Depth 0.00 in    
Sea Level Pressure  
Sea Level Pressure 30.02 in    
Wind  
Wind Speed 2 mph (SE)    
Max Wind Speed 20 mph    
Max Gust Speed 29 mph    
Visibility 9 miles    
Events Thunderstorm    
T = Trace of Precipitation, MM = Missing Value Source: NWS Daily Summary

Daily Weather History Graph

Daily Weather History Graph

Search for Another Location

Airport:

Trip Planner

Search our weather history database for the weather conditions in past years. The results will help you decide how hot, cold, wet, or windy it might be!

Date:

Astronomy

Aug. 05, 2012 Rise Set
Actual Time 6:32 AM CDT 8:14 PM CDT
Civil Twilight 6:05 AM CDT 8:41 PM CDT
Nautical Twilight 5:32 AM CDT 9:13 PM CDT
Astronomical Twilight 4:57 AM CDT 9:48 PM CDT
Moon 10:08 PM CDT (8/5) 10:07 AM CDT (8/5)
Length of Visible Light 14h 36m
Length of Day
13h 42m
Waning Gibbous, 86% of the Moon is Illuminated
Aug 5
Waning Gibbous
Aug 9
Last Quarter
Aug 17
New
Aug 24
First Quarter
Aug 31
Full

Hourly Weather History & Observations

Time (CDT) Temp. Heat Index Dew Point Humidity Pressure Visibility Wind Dir Wind Speed Gust Speed Precip Events Conditions
12:53 AM 84.0 °F 88.4 °F 70.0 °F 63% 29.98 in 10.0 mi Calm Calm - N/A   Clear
1:53 AM 77.0 °F - 71.1 °F 82% 29.96 in 10.0 mi Calm Calm - N/A   Clear
2:53 AM 73.9 °F - 71.1 °F 91% 29.96 in 8.0 mi Calm Calm - N/A   Clear
3:53 AM 73.0 °F - 71.1 °F 93% 29.98 in 8.0 mi Calm Calm - N/A   Clear
4:53 AM 73.0 °F - 70.0 °F 90% 30.01 in 8.0 mi Calm Calm - N/A   Clear
5:53 AM 73.9 °F - 71.1 °F 91% 30.04 in 9.0 mi Calm Calm - N/A   Clear
6:53 AM 73.0 °F - 71.1 °F 93% 30.06 in 7.0 mi Calm Calm - N/A   Clear
7:53 AM 78.1 °F - 73.0 °F 84% 30.08 in 8.0 mi Calm Calm - N/A   Clear
8:53 AM 84.9 °F 91.4 °F 73.0 °F 67% 30.08 in 9.0 mi North 3.5 mph - N/A   Clear
9:53 AM 88.0 °F 93.8 °F 71.1 °F 57% 30.08 in 10.0 mi Variable 4.6 mph - N/A   Clear
10:53 AM 91.9 °F 98.4 °F 71.1 °F 50% 30.07 in 10.0 mi Variable 3.5 mph - N/A   Clear
11:53 AM 95.0 °F 102.5 °F 71.1 °F 46% 30.05 in 10.0 mi South 4.6 mph - N/A   Clear
12:53 PM 100.0 °F 108.6 °F 71.1 °F 39% 30.03 in 10.0 mi Variable 3.5 mph - N/A   Clear
1:53 PM 100.9 °F 106.7 °F 68.0 °F 34% 30.01 in 10.0 mi SE 5.8 mph - N/A   Clear
2:53 PM 102.0 °F 107.3 °F 66.9 °F 32% 29.99 in 10.0 mi West 4.6 mph - N/A   Partly Cloudy
3:53 PM 102.0 °F 106.6 °F 66.0 °F 31% 29.96 in 10.0 mi Variable 5.8 mph - N/A   Partly Cloudy
4:19 PM 102.2 °F 106.9 °F 66.2 °F 31% 29.97 in 10.0 mi SW 8.1 mph - N/A Thunderstorm Partly Cloudy
5:03 PM 80.6 °F 83.9 °F 69.8 °F 70% 30.01 in - ENE 19.6 mph 28.8 mph N/A Thunderstorm Thunderstorm
5:44 PM 77.0 °F - 71.6 °F 83% 29.97 in 10.0 mi Calm Calm - N/A   Scattered Clouds
5:53 PM 77.0 °F - 73.0 °F 88% 29.97 in 9.0 mi Calm Calm - N/A   Partly Cloudy
6:53 PM 78.1 °F - 73.9 °F 87% 30.00 in 10.0 mi Calm Calm - N/A   Clear
7:53 PM 79.0 °F - 73.9 °F 84% 30.01 in 10.0 mi ENE 5.8 mph - N/A   Mostly Cloudy
8:53 PM 78.1 °F - 73.9 °F 87% 30.01 in 10.0 mi Calm Calm - N/A   Mostly Cloudy
9:53 PM 78.1 °F - 73.9 °F 87% 30.01 in 10.0 mi Calm Calm - N/A   Partly Cloudy
10:53 PM 77.0 °F - 72.0 °F 84% 30.05 in 10.0 mi Calm Calm - N/A   Clear
11:53 PM 75.0 °F - 73.0 °F 94% 30.05 in 9.0 mi Calm Calm - N/A   Clear